Location: Gunung Kajang
(2.4167°N, 113.7167°E)
Time: 16:45:52
(UTC+00:00)

ARIANE 5 DEB (SYLDA) - Pass Details

Date: 29 May 2022
Orbit: 884 x 35870 km, 2.1° (Epoch: 06 July)

Event Time Altitude Azimuth Distance (km) Brightness Sun altitude
Exits shadow 21:46:22 - 261° (W) 2,717 4.7 -7.5°
Reaches altitude 10° 21:46:46 10° 260° (W) 2,530 4.5 -7.4°
Maximum altitude 21:51:25 63° 178° (S) 1,159 3.4 -6.3°
Drops below altitude 10° 22:01:16 10° 97° (E) 5,163 7.9 -4.1°
Sets 22:09:02 0° 94° (E) 8,448 9.2 -2.3°
